Location: Paderno d�Adda
(45.6667°N, 9.4333°E)
Time: 10:43:10
(UTC+00:00)

ATLAS 3B R/B - Pass Details

Date: 17 January 2021
Orbit: 1006 x 1189 km, 63.8° (Epoch: 24 February)

Event Time Altitude Azimuth Distance (km) Brightness Sun altitude
Rises 19:22:35 0° 305° (NW) 3,915 6.4 -33.6°
Reaches altitude 10° 19:27:41 10° 273° (W) 3,000 5.8 -34.5°
Maximum altitude 19:29:34 11° 257° (WSW) 2,927 5.7 -34.8°
Drops below altitude 10° 19:31:29 10° 242° (WSW) 3,029 5.6 -35.2°
Sets 19:36:45 0° 210° (SSW) 4,023 6.0 -36.1°
